User: anonymous   Login
Location: Springfield
(37.2150°N, 93.2980°W)
Time: 15:45:47
(UTC-06:00)
Language:

Iridium 62 - Orbit

View from above orbital plane
View from above orbital plane
View from above satellite
View from above satellite

Ground track
Ground track

The orbit data is extracted from the following two-line orbital elements,

1 25285U 98021A   16038.50831271  .00000076  00000-0  20069-4 0  9991
2 25285  86.3928  71.1388 0002195  96.8377 263.3069 14.34218271933978
Epoch (UTC): 07 February 2016 12:11:58
Eccentricity: 0.0002195
inclination: 86.3928°
perigee height: 776 km
apogee height: 779 km
right ascension of ascending node: 71.1388°
argument of perigee: 96.8377°
revolutions per day: 14.34218271
mean anomaly at epoch: 263.3069°
orbit number at epoch: 93397

The dashed part of the orbit path shows where the satellite is in the earth's shadow,  

DLR